Weather History for KOSU - February, 2012

Change the Weather History Date:

Thursday, February 2, 2012

  Actual Average Record
Temperature  
Mean Temperature 38 °F -  
Max Temperature 44 °F 36 °F 52 °F (2006)
Min Temperature 30 °F 21 °F 9 °F (2007)
Degree Days  
Heating Degree Days 26    
Moisture  
Dew Point 33 °F    
Average Humidity 82    
Maximum Humidity 96    
Minimum Humidity 57    
Precipitation  
Precipitation 0.00 in - - ()
Sea Level Pressure  
Sea Level Pressure 30.23 in    
Wind  
Wind Speed 7 mph (NNW)    
Max Wind Speed 12 mph    
Max Gust Speed -    
Visibility 7 miles    
Events      
Averages and records for this station are not official NWS values.
T = Trace of Precipitation, MM = Missing Value Source: NWS Daily Summary

Daily Weather History Graph

Daily Weather History Graph

Search for Another Location

Airport or City:

Trip Planner

Search our weather history database for the weather conditions in past years. The results will help you decide how hot, cold, wet, or windy it might be!

Date:

Astronomy

Feb. 02, 2012 Rise Set
Actual Time 7:40 AM EST 5:51 PM EST
Civil Twilight 7:11 AM EST 6:20 PM EST
Nautical Twilight 6:39 AM EST 6:53 PM EST
Astronomical Twilight 6:07 AM EST 7:24 PM EST
Moon 1:02 PM EST (2/2) 3:21 AM EST (2/2)
Length of Visible Light 11h 08m
Length of Day
10h 11m
Waxing Gibbous, 73% of the Moon is Illuminated
Feb 2
Waxing Gibbous
Feb 7
Full
Feb 14
Last Quarter
Feb 21
New
Feb 29
First Quarter

Hourly Weather History & Observations

Time (EST) Temp. Windchill Dew Point Humidity Pressure Visibility Wind Dir Wind Speed Gust Speed Precip Events Conditions
12:53 AM 39.0 °F 32.8 °F 37.0 °F 93% 30.09 in 4.0 mi NNW 9.2 mph - N/A   Mostly Cloudy
1:53 AM 39.0 °F 35.7 °F 37.0 °F 93% 30.09 in 4.0 mi North 4.6 mph - N/A   Overcast
2:14 AM 37.4 °F 32.8 °F 35.6 °F 93% 30.07 in 4.0 mi North 5.8 mph - N/A   Scattered Clouds
2:38 AM 39.2 °F 35.0 °F 35.6 °F 87% 30.08 in 4.0 mi NNW 5.8 mph - N/A   Mostly Cloudy
2:49 AM 39.2 °F 35.0 °F 35.6 °F 87% 30.08 in 4.0 mi NNW 5.8 mph - N/A   Overcast
2:53 AM 39.0 °F 34.0 °F 36.0 °F 89% 30.09 in 5.0 mi NNW 6.9 mph - N/A   Overcast
3:40 AM 37.4 °F 33.8 °F 35.6 °F 93% 30.09 in 5.0 mi NNW 4.6 mph - N/A   Overcast
3:53 AM 37.9 °F 33.5 °F 35.1 °F 89% 30.10 in 5.0 mi NNW 5.8 mph - N/A   Mostly Cloudy
4:13 AM 37.4 °F 34.9 °F 33.8 °F 87% 30.09 in 5.0 mi NW 3.5 mph - N/A   Partly Cloudy
4:53 AM 35.1 °F 29.3 °F 34.0 °F 96% 30.12 in 4.0 mi NW 6.9 mph - N/A   Clear
5:53 AM 34.0 °F 28.8 °F 33.1 °F 96% 30.14 in 4.0 mi NNW 5.8 mph - N/A   Clear
6:53 AM 34.0 °F 28.0 °F 32.0 °F 92% 30.17 in 7.0 mi NW 6.9 mph - N/A   Clear
7:53 AM 33.1 °F 26.1 °F 30.9 °F 92% 30.20 in 3.0 mi NW 8.1 mph - N/A   Clear
8:30 AM 33.8 °F 27.0 °F 32.0 °F 93% 30.20 in 3.0 mi NW 8.1 mph - N/A   Mostly Cloudy
8:53 AM 35.1 °F 29.3 °F 33.1 °F 92% 30.24 in 4.0 mi NW 6.9 mph - N/A   Overcast
9:53 AM 37.9 °F 32.1 °F 33.1 °F 83% 30.25 in 6.0 mi NW 8.1 mph - N/A   Haze
10:53 AM 39.9 °F 33.4 °F 32.0 °F 73% 30.27 in 9.0 mi NNW 10.4 mph - N/A   Overcast
11:53 AM 39.9 °F 32.9 °F 32.0 °F 73% 30.29 in 9.0 mi WNW 11.5 mph - N/A   Overcast
12:53 PM 42.1 °F 36.1 °F 32.0 °F 67% 30.28 in 10.0 mi WNW 10.4 mph - N/A   Mostly Cloudy
1:53 PM 42.1 °F 36.6 °F 30.9 °F 65% 30.29 in 10.0 mi NW 9.2 mph - N/A   Mostly Cloudy
2:53 PM 44.1 °F 39.5 °F 32.0 °F 63% 30.30 in 10.0 mi NW 8.1 mph - N/A   Mostly Cloudy
3:53 PM 44.1 °F 39.0 °F 30.9 °F 60% 30.31 in 10.0 mi NNW 9.2 mph - N/A   Mostly Cloudy
4:00 PM 44.6 °F 40.2 °F 30.2 °F 57% 30.29 in 10.0 mi NW 8.1 mph - N/A   Partly Cloudy
4:53 PM 44.1 °F 39.0 °F 30.9 °F 60% 30.33 in 10.0 mi North 9.2 mph - N/A   Clear
5:53 PM 39.0 °F 35.7 °F 30.9 °F 73% 30.35 in 10.0 mi North 4.6 mph - N/A   Clear
6:53 PM 37.9 °F 34.4 °F 30.0 °F 73% 30.37 in 10.0 mi North 4.6 mph - N/A   Clear
7:53 PM 37.9 °F - 30.9 °F 76% 30.38 in 10.0 mi Calm Calm - N/A   Clear
8:53 PM 35.1 °F - 30.0 °F 82% 30.40 in 10.0 mi Calm Calm - N/A   Clear
9:53 PM 35.1 °F 32.2 °F 30.0 °F 82% 30.41 in 10.0 mi NNE 3.5 mph - N/A   Clear
10:53 PM 34.0 °F - 30.0 °F 85% 30.42 in 10.0 mi Calm Calm - N/A   Clear
11:53 PM 30.9 °F - 28.0 °F 89% 30.43 in 9.0 mi Calm Calm - N/A   Clear